DELTA 1 DEB

Satellite information

Favourite Embed

Satellite Type and Status

DEBRISIN ORBIT

Key statistics

Satellite DELTA 1 DEB at a glance.

Uptime

17450

Days in orbit

Revolutions

≈ 14.3

Per day

Orbit

SSO

Sun Synchronous Orbit

Inclination

99.3

Latest

Satellite identification and parameters

Extended collection of information and parameters for DELTA 1 DEB.

Object identification

Identified? True

Debris? True

Object name: DELTA 1 DEB

International designator: 1978-026EK

Object number (NORAD): 12291

Object ID (CCSDS): 12291

Country: UNITED STATES OF AMERICA (US)

Current information (Y/N): Y

RCS size: MEDIUM

Orbital parameters

Period: 100.378 minutes

Inclination: 99.2812 deg

SMA: 7154.601 km

Apoapsis: 806.622 km

Periapsis: 746.31 km

RAAN: 164.8159 deg

Eccentricy: 0.00421489

Argument of periapsis: 239.7929 deg

Mean anomaly: 236.2601 deg

Mean motion: 14.34579455 rev/day

Mean motion (dot): 0.00004938 rev/day2

B* drag term: 0.0017476771 1/REarth

Two-line elements (TLE)

Creation date: Dec. 12, 2025, 10:14 a.m.

Reference frame: TEME

Reference center: EARTH

Epoch: Dec. 12, 2025, 1:17 a.m. UTC

TLE line 0: 0 DELTA 1 DEB

TLE line 1: 1 12291U 78026EK 25346.05355571 .00004938 00000-0 17477-2 0 9991

TLE line 2: 2 12291 99.2812 164.8159 0042149 239.7929 236.2601 14.34579455306841

Live tracking on map

Real-time ground track for satellite DELTA 1 DEB.

In-orbit conjunctions

A list of the most updated potential collisions computed for object DELTA 1 DEB.

Target Orbit TCA Probability of collision Miss distance Type
SL-14 R/B LEO 2025-03-10 12:21:29 0.0001377489 248.0 (m) ROCKET BODY
SOICAL (CONE) LEO 2024-12-27 08:25:34 0.0001727944 914.0 (m) PAYLOAD
COSMOS 1023 LEO 2024-09-18 01:09:46 0.0002443173 129.0 (m) PAYLOAD

Associated space launch

Earth observation satellite

DELTA 1 DEB was lifted into orbit during the mission ‘Delta 2910 | Landsat 3’, on board a Delta 2910 space rocket.

The launch took place on March 5, 1978, 5:54 p.m. from Space Launch Complex 2W.

For more information about the launch, click the button.

Launch to space Delta 2910 | Landsat 3
Delta 2910 | Landsat 3

Agency: N/A

Status: Launch Successful

Launch date: March 5, 1978, 5:54 p.m. UTC

Rocket: Delta 2910

Launch pad: Space Launch Complex 2W

Location: Vandenberg SFB, CA, USA

...

Latest news about this satellite

There are no fresh news available about this satellite. Check back as we update our databases every day.


Newsletter sign-up

Weekly statistics, charts and insights to help you stay on top of the space industry.